Theta_e
290 290 290 290 290 289 289 289 288 288 288 288 287 286 286 286 285 285 285 285 285 284 284 284 284 283 283 283 283 283 282 282 282 282 282 283 283 283 282 282 283 284
289 289 289 289 289 288 288 288 287 287 287 287 287 286 286 286 286 286 285 285 285 285 284 284 284 283 283 283 283 282 282 282 282 282 282 282 282 282 282 282 283 283
289 289 288 288 288 288 287 287 287 287 287 287 287 287 286 286 286 286 285 285 285 284 284 284 283 283 283 283 282 282 282 282 282 282 282 282 282 282 281 282 282 282
288 288 288 288 288 287 287 287 287 287 287 287 287 286 286 286 285 285 285 284 284 283 283 283 282 282 282 282 282 282 281 281 281 281 282 281 281 281 281 281 281 281
288 288 287 287 287 287 287 287 287 287 287 287 286 286 285 285 285 284 284 283 283 282 282 282 281 281 281 281 281 281 281 281 281 281 281 280 281 281 280 280 280 280
287 287 287 287 287 287 287 287 287 287 286 286 286 285 285 284 284 283 283 282 282 281 281 281 281 281 281 281 281 281 281 280 281 280 280 280 280 280 280 280 280 280
287 287 287 287 287 287 287 287 287 286 286 285 285 284 284 283 283 282 282 281 281 281 281 281 280 280 281 281 281 280 280 280 280 279 279 279 279 279 279 279 279 279
287 287 287 287 287 287 287 287 286 286 285 285 284 284 283 283 282 282 282 281 281 281 280 280 280 280 280 280 280 280 279 279 279 278 278 278 278 278 278 278 278 278
287 287 287 287 287 287 287 286 286 285 285 284 284 283 283 283 282 282 281 281 280 280 280 280 280 280 280 280 280 279 279 278 278 278 278 278 278 278 277 277 277 277
286 286 287 286 287 287 287 286 286 285 285 284 283 283 283 282 282 281 281 280 280 280 279 279 279 279 279 279 279 279 278 278 278 277 277 277 277 277 277 277 277 277
286 286 286 286 287 287 286 286 285 285 284 284 283 283 282 282 281 281 280 280 280 279 279 279 279 279 279 279 279 278 278 278 277 277 276 276 276 276 276 276 276 276
285 286 286 286 287 287 286 285 285 285 284 284 283 283 282 282 281 281 280 280 279 279 279 279 279 279 279 278 278 278 277 277 276 276 276 276 276 276 276 276 276 276
285 286 286 286 287 287 286 285 285 284 284 283 283 283 282 282 282 281 280 279 279 279 279 279 279 279 278 278 278 277 277 276 276 276 276 276 276 276 276 275 275 275
285 285 286 287 287 286 286 285 285 284 284 283 283 283 283 282 281 281 280 279 279 279 278 278 278 278 278 278 277 277 276 276 276 275 275 275 275 275 275 275 275 275
285 286 286 287 287 286 285 285 284 284 284 284 283 283 283 282 281 280 279 279 279 278 278 278 278 278 278 277 277 276 276 276 276 275 274 274 274 274 275 275 275 275
286 286 286 287 286 286 285 285 284 284 284 283 283 283 282 282 281 280 279 279 278 278 278 278 278 278 277 277 276 276 275 275 275 274 273 273 274 274 274 274 275 274
286 286 286 287 286 286 285 285 284 284 284 283 283 282 282 281 281 280 279 278 278 278 278 278 277 277 277 277 276 275 275 274 274 273 272 273 273 274 274 274 274 274
286 286 286 286 286 286 285 285 285 284 283 283 282 282 282 281 280 279 279 278 278 278 278 277 277 277 276 276 276 275 274 274 273 272 272 273 273 273 273 273 273 273
286 286 286 286 286 286 285 285 284 284 283 282 282 282 281 281 280 279 278 278 277 277 277 277 277 277 276 276 275 275 274 274 273 273 272 273 273 273 273 273 272 272
286 286 286 286 286 285 285 285 284 283 283 282 282 282 281 280 279 279 278 277 277 277 277 277 277 276 276 276 275 275 274 273 273 272 272 272 272 272 272 272 271 271
286 286 286 286 286 285 285 284 284 283 282 282 282 281 280 279 279 278 278 277 277 276 276 276 276 276 275 275 275 274 274 273 272 272 271 271 271 271 271 271 271 271
286 286 286 286 285 285 285 284 284 283 282 281 281 280 280 279 279 278 277 277 276 276 276 276 276 275 275 275 274 274 273 273 272 271 270 270 271 271 271 271 271 271
286 287 287 286 285 285 285 285 284 282 281 281 281 280 280 279 279 278 277 276 276 276 275 275 276 275 275 274 274 273 273 272 271 270 270 270 271 271 271 271 271 271
287 287 287 286 285 285 285 284 283 282 281 281 281 280 280 279 278 277 277 276 275 275 275 275 275 275 274 274 273 273 272 271 270 270 270 271 271 271 271 271 271 271
287 287 287 286 286 285 285 284 283 281 280 281 280 280 279 278 278 277 276 275 275 275 275 274 275 274 274 273 273 273 272 271 270 270 271 271 271 271 271 272 272 272
287 287 286 286 285 285 284 283 282 280 280 280 280 279 278 278 277 276 275 275 275 275 274 274 274 274 274 273 273 272 272 271 270 270 271 271 271 272 272 272 273 273
Wind_Speed
21 20 19 17 17 17 16 16 15 14 12 11 11 13 14 16 17 16 16 16 16 16 16 16 16 16 16 15 15 14 13 14 14 15 16 15 13 14 14 15 13 12
21 20 20 19 19 18 18 17 16 15 14 13 12 13 14 15 15 15 14 14 15 14 15 15 15 16 16 16 16 15 14 15 15 17 17 15 13 13 15 15 12 12
21 21 21 20 19 18 18 17 16 15 15 14 13 12 13 13 13 13 12 12 12 12 13 13 13 14 14 15 15 15 15 15 15 17 17 15 13 13 15 14 12 12
21 20 20 18 18 17 16 15 15 14 13 12 11 11 11 11 11 11 11 11 11 11 11 11 12 13 14 14 14 14 14 13 13 16 17 16 13 13 15 15 13 14
20 19 18 17 16 15 14 13 13 12 11 10 9 9 9 9 9 9 9 9 9 9 10 10 12 12 13 14 14 13 13 12 13 16 17 15 13 13 14 15 14 14
19 18 17 16 14 13 12 11 10 9 9 8 8 8 8 7 7 7 7 8 8 9 9 10 11 12 13 13 13 13 12 13 14 15 15 14 13 13 13 13 14 13
18 17 15 14 12 11 10 9 8 7 7 7 7 7 7 7 7 7 8 8 9 9 10 11 11 12 13 13 13 13 13 13 14 14 15 14 13 13 12 13 14 13
17 16 14 12 10 9 8 7 7 6 6 6 6 6 6 7 7 8 8 9 9 10 10 11 12 12 13 13 13 13 13 13 13 14 14 13 13 13 13 14 14 13
17 15 13 11 9 8 7 6 5 5 5 5 5 5 6 7 7 8 8 9 9 10 11 11 12 12 12 12 13 13 13 13 13 13 13 13 13 13 13 14 14 12
16 14 13 11 9 7 6 5 4 4 4 4 4 4 5 6 7 8 8 9 10 11 11 12 12 12 12 12 12 12 12 13 13 12 12 12 13 13 13 13 13 12
16 15 13 12 10 8 7 6 4 3 3 2 3 4 5 6 8 9 9 10 10 11 11 12 12 12 12 12 12 12 12 13 12 12 13 13 14 13 12 13 13 12
17 17 14 13 11 9 8 6 5 3 2 1 2 4 5 7 8 9 10 10 10 11 11 11 11 11 11 11 12 12 12 12 12 13 13 14 14 13 13 14 13 12
19 18 16 14 11 10 9 7 5 4 2 0 2 4 5 7 8 9 9 9 10 10 10 11 11 11 11 11 12 12 12 12 13 13 14 15 15 14 13 13 13 13
21 19 17 15 13 12 10 8 7 4 2 1 2 4 5 7 8 9 9 10 10 10 10 11 11 11 11 12 12 12 13 13 14 14 15 15 15 15 14 13 14 14
23 21 19 16 15 13 12 10 8 5 3 2 3 4 5 7 8 9 9 10 10 10 10 11 11 11 11 12 12 13 14 14 14 14 14 15 15 15 15 14 14 14
24 22 20 18 17 15 13 11 8 6 4 3 3 4 5 7 8 9 9 10 10 10 10 10 11 11 11 11 12 12 13 14 14 15 15 15 14 15 15 14 14 15
25 23 21 20 19 17 14 12 9 7 6 5 4 4 5 6 8 9 9 10 10 10 10 11 11 11 11 11 11 11 12 14 14 15 16 15 13 13 14 15 15 16
26 25 23 22 20 18 15 12 10 9 8 6 5 5 6 7 8 9 10 10 11 10 11 11 11 11 11 12 12 11 11 13 14 15 15 14 13 13 14 15 16 17
27 27 26 24 21 19 16 13 12 11 9 7 6 6 8 8 9 9 10 11 11 11 11 11 11 12 12 12 12 12 12 13 14 15 14 13 13 13 14 14 16 17
29 29 28 25 22 20 17 15 14 12 10 9 8 8 9 9 10 10 10 11 12 12 12 12 11 12 13 13 13 13 13 13 14 15 14 14 15 15 14 14 14 15
31 31 29 26 23 21 19 17 15 14 12 11 10 10 10 10 11 11 11 11 12 13 13 12 12 12 13 13 13 13 13 13 15 16 16 16 16 15 14 13 13 14
33 32 30 28 25 23 20 19 17 16 14 13 12 12 11 11 11 12 11 12 12 13 14 13 11 11 13 14 13 13 13 14 16 17 16 16 15 13 13 12 12 13
34 33 31 30 27 24 22 21 19 18 16 14 13 12 12 12 12 12 12 12 13 13 14 14 12 11 13 14 13 13 13 14 15 15 14 13 13 12 13 12 12 13
35 34 33 31 29 26 24 22 21 19 17 15 13 13 13 13 13 14 13 12 13 13 14 15 13 11 12 13 13 12 12 13 14 13 11 12 12 12 12 13 14 15
36 35 35 32 30 28 25 23 22 20 17 15 14 14 14 13 14 14 14 13 13 14 14 15 15 13 12 13 13 12 12 12 12 12 11 12 12 12 13 14 14 16
37 37 36 33 31 28 25 23 22 21 18 16 15 14 14 14 14 15 15 14 13 14 14 15 16 15 13 12 12 12 11 11 11 11 12 12 12 13 15 15 15 16
Wind_Direction
126 125 121 118 116 116 115 111 106 101 95 93 86 75 66 59 53 49 46 41 39 38 35 35 32 30 31 28 29 32 23 19 21 13 12 15 10 5 2 359 358 349
131 130 127 126 124 120 114 107 101 97 94 89 83 71 60 55 49 44 41 37 34 32 29 28 24 22 22 20 21 23 16 13 12 7 8 9 2 357 354 354 352 345
136 134 131 128 123 116 109 103 97 92 87 82 76 66 57 52 46 41 38 36 33 29 26 24 21 19 17 15 18 19 13 10 4 1 5 5 357 350 348 347 342 339
140 136 132 125 118 111 105 101 96 90 84 78 71 61 54 49 44 40 35 32 31 26 23 20 17 16 14 14 16 15 12 8 358 356 2 3 355 346 342 343 341 340
144 137 131 123 115 110 106 101 96 91 83 75 69 60 54 49 43 38 34 30 28 24 21 19 16 14 13 13 14 11 8 2 354 354 359 359 352 342 340 341 339 337
147 139 132 124 117 113 108 101 94 90 82 74 71 62 53 48 42 37 32 29 26 22 19 15 13 12 11 11 11 7 2 356 353 354 357 353 347 342 340 338 334 331
150 143 135 129 123 116 109 102 96 92 84 74 68 58 49 42 37 31 27 23 19 16 13 11 10 8 7 8 6 3 358 353 351 351 352 349 344 342 339 335 333 330
154 148 142 136 130 121 113 109 104 96 83 70 61 51 43 34 26 21 18 16 13 11 9 7 6 5 4 3 360 357 354 350 347 346 347 346 343 340 335 334 333 328
161 156 151 144 138 133 129 124 113 99 82 71 59 43 33 25 19 14 12 11 10 8 5 3 1 0 359 357 353 350 348 345 343 342 342 341 338 335 331 333 333 327
169 165 160 156 154 153 149 141 129 113 91 72 55 35 24 16 12 10 9 8 6 3 360 357 355 354 352 350 347 344 341 339 339 339 337 335 333 331 329 329 330 326
177 174 171 170 169 168 164 160 152 134 102 71 47 26 15 10 7 5 3 2 359 356 354 351 348 346 345 343 340 337 335 335 334 332 331 330 330 329 324 322 324 322
184 184 182 181 180 179 178 178 174 158 122 76 35 14 8 5 1 357 355 354 353 350 347 344 341 340 338 336 334 332 331 330 327 325 324 325 327 325 320 320 321 317
190 191 190 188 187 189 189 189 188 182 166 78 11 4 0 356 351 348 346 346 346 344 341 338 336 334 333 330 328 326 324 321 319 319 319 319 323 323 319 317 315 313
195 196 195 193 194 196 197 199 198 195 196 270 346 350 350 347 343 339 338 338 339 338 335 332 329 328 326 323 321 319 317 317 316 316 317 316 319 321 317 313 312 311
199 200 198 198 199 201 203 205 204 204 214 266 317 335 339 338 335 332 331 331 333 332 328 326 322 320 319 317 317 315 313 315 314 312 314 313 314 316 314 310 309 305
203 203 201 201 202 205 208 209 209 212 228 259 292 316 327 330 327 325 324 322 324 324 321 319 315 313 313 311 311 311 310 311 309 307 310 310 307 309 310 307 304 301
205 206 205 204 205 208 211 211 213 221 233 251 278 303 314 317 315 314 315 314 315 315 313 311 308 306 307 306 306 306 304 303 303 304 307 307 303 302 303 302 301 301
207 208 207 207 208 210 213 213 219 227 234 247 268 288 296 300 302 302 304 306 307 308 306 304 303 302 301 301 302 302 300 297 298 300 301 300 296 295 296 298 298 299
210 211 209 209 210 211 214 216 223 230 235 244 259 273 280 285 289 293 297 299 300 302 301 300 300 299 298 299 299 300 297 293 293 295 294 291 287 288 291 293 294 297
213 212 210 210 211 213 216 219 225 231 234 240 252 261 267 274 281 287 292 294 296 298 298 299 300 297 296 297 298 299 297 292 290 289 287 285 284 286 289 287 289 292
214 212 210 211 213 214 217 221 226 230 233 238 247 254 262 271 279 285 289 291 295 296 296 298 300 297 295 296 298 299 296 290 287 286 286 287 287 288 288 285 284 287
214 211 211 213 214 216 218 222 227 230 231 236 244 252 261 271 278 284 289 291 294 295 295 298 300 297 295 296 299 299 294 288 288 289 290 290 286 285 285 280 278 282
214 212 214 215 215 217 220 223 227 229 231 236 243 253 263 270 277 282 286 290 294 295 296 298 301 298 296 297 299 298 293 290 290 291 289 285 281 280 282 279 277 279
215 215 217 217 217 219 222 225 227 228 231 237 244 254 262 270 277 280 284 289 293 296 296 298 300 300 297 298 300 298 292 289 288 286 281 280 282 282 283 282 282 282
217 218 219 219 220 222 223 225 228 229 231 238 244 252 261 268 274 278 283 289 293 296 297 297 300 301 300 299 299 297 292 288 284 281 279 280 284 287 289 288 287 288
219 220 220 220 222 223 223 225 228 229 232 237 242 250 258 265 271 278 284 289 294 297 297 297 299 302 302 300 298 296 291 283 275 274 277 282 286 290 293 294 294 294